Time,TemperatureF,DewpointF,PressureIn,WindDirection,WindDirectionDegrees,WindSpeedMPH,WindSpeedGustMPH,Humidity,HourlyPrecipIn,Conditions,Clouds,dailyrainin,SoftwareType,DateUTC
2013-06-28 00:02:00,88.2,38.8,30.05,SSW,203,1.8,4.0,18,0.00,,,0.00,WUHU216HW,2013-06-28 06:02:00,
2013-06-28 00:07:00,88.2,38.8,30.05,SSW,203,1.1,3.8,18,0.00,,,0.00,WUHU216HW,2013-06-28 06:07:00,
2013-06-28 00:12:00,88.2,38.8,30.05,South,180,1.8,3.4,18,0.00,,,0.00,WUHU216HW,2013-06-28 06:12:00,
2013-06-28 00:17:00,87.8,38.5,30.05,SE,135,1.6,2.2,18,0.00,,,0.00,WUHU216HW,2013-06-28 06:17:00,
2013-06-28 00:22:00,87.7,40.1,30.05,SSW,203,2.5,4.0,19,0.00,,,0.00,WUHU216HW,2013-06-28 06:22:00,
2013-06-28 00:27:00,87.5,39.9,30.05,SSW,203,1.6,4.0,19,0.00,,,0.00,WUHU216HW,2013-06-28 06:27:00,
2013-06-28 00:32:00,87.1,39.6,30.05,SW,225,0.7,3.4,19,0.00,,,0.00,WUHU216HW,2013-06-28 06:32:00,
2013-06-28 00:37:00,86.9,39.4,30.06,SSW,203,2.0,2.9,19,0.00,,,0.00,WUHU216HW,2013-06-28 06:37:00,
2013-06-28 00:42:00,86.8,39.2,30.06,SSW,203,1.1,2.9,19,0.00,,,0.00,WUHU216HW,2013-06-28 06:42:00,
2013-06-28 00:47:00,86.8,39.2,30.06,SSW,203,1.6,2.5,19,0.00,,,0.00,WUHU216HW,2013-06-28 06:47:00,
2013-06-28 00:52:00,86.4,39.0,30.06,SSW,203,1.1,2.5,19,0.00,,,0.00,WUHU216HW,2013-06-28 06:52:00,
2013-06-28 00:57:00,86.4,39.0,30.06,SSW,203,0.4,2.0,19,0.00,,,0.00,WUHU216HW,2013-06-28 06:57:00,
2013-06-28 01:02:00,86.0,38.6,30.06,WSW,248,0.4,1.8,19,0.00,,,0.00,WUHU216HW,2013-06-28 07:02:00,
2013-06-28 01:07:00,86.0,38.6,30.06,WSW,248,1.1,2.0,19,0.00,,,0.00,WUHU216HW,2013-06-28 07:07:00,
2013-06-28 01:12:00,85.9,38.4,30.06,SW,225,1.8,2.0,19,0.00,,,0.00,WUHU216HW,2013-06-28 07:12:00,
2013-06-28 01:17:00,85.7,38.4,30.06,SW,225,1.3,2.2,19,0.00,,,0.00,WUHU216HW,2013-06-28 07:17:00,
2013-06-28 01:22:00,85.5,38.2,30.06,SW,225,1.8,2.2,19,0.00,,,0.00,WUHU216HW,2013-06-28 07:22:00,
2013-06-28 01:27:00,85.3,38.1,30.06,SSW,203,2.5,2.9,19,0.00,,,0.00,WUHU216HW,2013-06-28 07:27:00,
2013-06-28 01:32:00,85.7,38.4,30.06,SSW,203,1.3,3.4,19,0.00,,,0.00,WUHU216HW,2013-06-28 07:32:00,
2013-06-28 01:37:00,85.7,38.4,30.06,WSW,248,2.5,3.6,19,0.00,,,0.00,WUHU216HW,2013-06-28 07:37:00,
2013-06-28 01:42:00,85.5,38.2,30.06,South,180,1.8,3.6,19,0.00,,,0.00,WUHU216HW,2013-06-28 07:42:00,
2013-06-28 01:47:00,85.3,38.1,30.06,SSW,203,1.6,2.9,19,0.00,,,0.00,WUHU216HW,2013-06-28 07:47:00,
2013-06-28 01:52:00,85.3,38.1,30.06,SW,225,2.9,2.9,19,0.00,,,0.00,WUHU216HW,2013-06-28 07:52:00,
2013-06-28 01:57:00,85.3,38.1,30.06,WSW,248,1.3,2.9,19,0.00,,,0.00,WUHU216HW,2013-06-28 07:57:00,
2013-06-28 02:02:00,85.1,37.9,30.06,SW,225,1.3,2.9,19,0.00,,,0.00,WUHU216HW,2013-06-28 08:02:00,
2013-06-28 02:07:00,85.0,37.7,30.05,SW,225,1.6,2.9,19,0.00,,,0.00,WUHU216HW,2013-06-28 08:07:00,
2013-06-28 02:12:00,85.0,37.7,30.05,SW,225,3.1,4.7,19,0.00,,,0.00,WUHU216HW,2013-06-28 08:12:00,
2013-06-28 02:17:00,85.0,39.4,30.05,SW,225,3.8,4.7,20,0.00,,,0.00,WUHU216HW,2013-06-28 08:17:00,
2013-06-28 02:22:00,85.1,40.7,30.04,SSW,203,3.4,4.3,21,0.00,,,0.00,WUHU216HW,2013-06-28 08:22:00,
2013-06-28 02:27:00,85.1,37.9,30.04,SSW,203,2.5,4.9,19,0.00,,,0.00,WUHU216HW,2013-06-28 08:27:00,
2013-06-28 02:32:00,85.1,37.9,30.04,SSE,158,1.6,4.9,19,0.00,,,0.00,WUHU216HW,2013-06-28 08:32:00,
2013-06-28 02:37:00,85.1,37.9,30.04,SW,225,1.6,3.1,19,0.00,,,0.00,WUHU216HW,2013-06-28 08:37:00,
2013-06-28 02:42:00,85.0,37.7,30.05,SW,225,1.1,2.5,19,0.00,,,0.00,WUHU216HW,2013-06-28 08:42:00,
2013-06-28 02:47:00,84.6,37.4,30.05,SSW,203,2.0,2.5,19,0.00,,,0.00,WUHU216HW,2013-06-28 08:47:00,
2013-06-28 02:52:00,84.6,39.2,30.05,South,180,1.3,2.0,20,0.00,,,0.00,WUHU216HW,2013-06-28 08:52:00,
2013-06-28 02:57:00,84.2,38.9,30.05,SSE,158,0.4,2.0,20,0.00,,,0.00,WUHU216HW,2013-06-28 08:57:00,
2013-06-28 03:02:00,83.9,38.6,30.05,SSE,158,0.9,2.0,20,0.00,,,0.00,WUHU216HW,2013-06-28 09:02:00,
2013-06-28 03:07:00,83.5,39.3,30.05,SSE,158,1.1,1.6,21,0.00,,,0.00,WUHU216HW,2013-06-28 09:07:00,
2013-06-28 03:12:00,83.2,39.1,30.05,SE,135,1.1,2.5,21,0.00,,,0.00,WUHU216HW,2013-06-28 09:12:00,
2013-06-28 03:17:00,83.2,40.2,30.05,South,180,1.6,2.9,22,0.00,,,0.00,WUHU216HW,2013-06-28 09:17:00,
2013-06-28 03:22:00,83.0,40.0,30.05,SSE,158,2.0,2.9,22,0.00,,,0.00,WUHU216HW,2013-06-28 09:22:00,
2013-06-28 03:27:00,82.8,39.8,30.05,SSE,158,1.3,2.9,22,0.00,,,0.00,WUHU216HW,2013-06-28 09:27:00,
2013-06-28 03:32:00,82.8,39.8,30.05,SW,225,1.8,2.5,22,0.00,,,0.00,WUHU216HW,2013-06-28 09:32:00,
2013-06-28 03:37:00,82.6,39.7,30.06,SE,135,0.7,2.5,22,0.00,,,0.00,WUHU216HW,2013-06-28 09:37:00,
2013-06-28 03:42:00,82.4,39.5,30.05,SSW,203,0.7,2.5,22,0.00,,,0.00,WUHU216HW,2013-06-28 09:42:00,
2013-06-28 03:47:00,82.1,39.2,30.05,WSW,248,0.0,1.1,22,0.00,,,0.00,WUHU216HW,2013-06-28 09:47:00,
2013-06-28 03:52:00,81.7,39.0,30.05,SSE,158,0.9,1.1,22,0.00,,,0.00,WUHU216HW,2013-06-28 09:52:00,
2013-06-28 03:57:00,81.5,39.9,30.05,SW,225,1.3,2.2,23,0.00,,,0.00,WUHU216HW,2013-06-28 09:57:00,
2013-06-28 04:02:00,81.4,39.7,30.05,SSW,203,1.3,2.5,23,0.00,,,0.00,WUHU216HW,2013-06-28 10:02:00,
2013-06-28 04:07:00,81.4,39.7,30.05,SW,225,1.1,2.7,23,0.00,,,0.00,WUHU216HW,2013-06-28 10:07:00,
2013-06-28 04:12:00,81.4,39.7,30.05,SW,225,1.1,2.7,23,0.00,,,0.00,WUHU216HW,2013-06-28 10:12:00,
2013-06-28 04:17:00,81.2,39.6,30.05,South,180,1.6,2.2,23,0.00,,,0.00,WUHU216HW,2013-06-28 10:17:00,
2013-06-28 04:22:00,81.2,39.6,30.05,SSE,158,1.8,2.2,23,0.00,,,0.00,WUHU216HW,2013-06-28 10:22:00,
2013-06-28 04:27:00,81.0,40.5,30.05,SSW,203,2.5,2.5,24,0.00,,,0.00,WUHU216HW,2013-06-28 10:27:00,
2013-06-28 04:32:00,81.0,40.5,30.05,SSW,203,1.3,2.5,24,0.00,,,0.00,WUHU216HW,2013-06-28 10:32:00,
2013-06-28 04:37:00,81.0,40.5,30.05,WSW,248,1.3,2.5,24,0.00,,,0.00,WUHU216HW,2013-06-28 10:37:00,
2013-06-28 04:42:00,80.8,39.2,30.06,SW,225,0.0,2.2,23,0.00,,,0.00,WUHU216HW,2013-06-28 10:42:00,
2013-06-28 04:47:00,80.8,39.2,30.06,WSW,248,0.7,1.3,23,0.00,,,0.00,WUHU216HW,2013-06-28 10:47:00,
2013-06-28 04:52:00,80.6,40.1,30.06,South,180,1.6,1.8,24,0.00,,,0.00,WUHU216HW,2013-06-28 10:52:00,
2013-06-28 04:57:00,80.5,40.1,30.06,SSE,158,0.9,1.8,24,0.00,,,0.00,WUHU216HW,2013-06-28 10:57:00,
2013-06-28 05:02:00,80.3,40.9,30.06,SSE,158,1.8,2.5,25,0.00,,,0.00,WUHU216HW,2013-06-28 11:02:00,
2013-06-28 05:07:00,80.3,40.9,30.06,SSE,158,0.2,2.5,25,0.00,,,0.00,WUHU216HW,2013-06-28 11:07:00,
2013-06-28 05:12:00,80.1,40.8,30.07,SW,225,1.1,2.2,25,0.00,,,0.00,WUHU216HW,2013-06-28 11:12:00,
2013-06-28 05:17:00,80.1,40.8,30.07,SSW,203,0.0,2.2,25,0.00,,,0.00,WUHU216HW,2013-06-28 11:17:00,
2013-06-28 05:22:00,79.9,40.6,30.08,SSW,203,0.0,1.1,25,0.00,,,0.00,WUHU216HW,2013-06-28 11:22:00,
2013-06-28 05:27:00,79.7,40.4,30.08,SSW,203,0.0,0.0,25,0.00,,,0.00,WUHU216HW,2013-06-28 11:27:00,
2013-06-28 05:32:00,79.6,40.2,30.08,SSW,203,0.0,0.0,25,0.00,,,0.00,WUHU216HW,2013-06-28 11:32:00,
2013-06-28 05:37:00,79.2,40.0,30.08,SSW,203,0.0,0.0,25,0.00,,,0.00,WUHU216HW,2013-06-28 11:37:00,
2013-06-28 05:42:00,79.0,40.8,30.09,SSW,203,0.0,0.0,26,0.00,,,0.00,WUHU216HW,2013-06-28 11:42:00,
2013-06-28 05:47:00,78.8,42.8,30.09,SSW,203,0.0,0.0,28,0.00,,,0.00,WUHU216HW,2013-06-28 11:47:00,
2013-06-28 05:52:00,78.7,42.6,30.09,SSW,203,0.4,0.7,28,0.00,,,0.00,WUHU216HW,2013-06-28 11:52:00,
2013-06-28 05:57:00,78.5,42.5,30.10,SSE,158,0.0,0.9,28,0.00,,,0.00,WUHU216HW,2013-06-28 11:57:00,
2013-06-28 06:02:00,78.5,42.5,30.10,SSW,203,0.4,1.8,28,0.00,,,0.00,WUHU216HW,2013-06-28 12:02:00,
2013-06-28 06:07:00,78.5,42.5,30.10,SE,135,0.4,1.8,28,0.00,,,0.00,WUHU216HW,2013-06-28 12:07:00,
2013-06-28 06:12:00,78.5,43.5,30.11,SSE,158,0.7,1.1,29,0.00,,,0.00,WUHU216HW,2013-06-28 12:12:00,
2013-06-28 06:17:00,78.5,42.5,30.11,SSW,203,1.1,1.1,28,0.00,,,0.00,WUHU216HW,2013-06-28 12:17:00,
2013-06-28 06:22:00,78.7,42.6,30.11,SW,225,0.0,1.1,28,0.00,,,0.00,WUHU216HW,2013-06-28 12:22:00,
2013-06-28 06:27:00,78.7,42.6,30.11,SW,225,0.0,1.1,28,0.00,,,0.00,WUHU216HW,2013-06-28 12:27:00,
2013-06-28 06:32:00,78.7,42.6,30.11,SW,225,0.0,0.4,28,0.00,,,0.00,WUHU216HW,2013-06-28 12:32:00,
2013-06-28 06:37:00,78.7,43.7,30.11,SW,225,0.0,0.7,29,0.00,,,0.00,WUHU216HW,2013-06-28 12:37:00,
2013-06-28 06:42:00,78.7,42.6,30.12,SW,225,0.0,0.7,28,0.00,,,0.00,WUHU216HW,2013-06-28 12:42:00,
2013-06-28 06:47:00,78.8,42.8,30.12,SW,225,0.4,0.7,28,0.00,,,0.00,WUHU216HW,2013-06-28 12:47:00,
2013-06-28 06:52:00,78.8,43.7,30.12,SW,225,0.4,0.9,29,0.00,,,0.00,WUHU216HW,2013-06-28 12:52:00,
2013-06-28 06:57:00,79.0,42.9,30.12,SW,225,0.0,1.1,28,0.00,,,0.00,WUHU216HW,2013-06-28 12:57:00,
2013-06-28 07:02:00,79.4,44.3,30.12,SW,225,0.0,1.1,29,0.00,,,0.00,WUHU216HW,2013-06-28 13:02:00,
2013-06-28 07:07:00,79.6,44.5,30.12,ESE,113,0.0,0.9,29,0.00,,,0.00,WUHU216HW,2013-06-28 13:07:00,
2013-06-28 07:12:00,79.9,44.7,30.12,ESE,113,0.0,0.9,29,0.00,,,0.00,WUHU216HW,2013-06-28 13:12:00,
2013-06-28 07:17:00,80.6,45.4,30.13,ESE,113,0.7,0.7,29,0.00,,,0.00,WUHU216HW,2013-06-28 13:17:00,
2013-06-28 07:22:00,81.0,45.7,30.13,ESE,113,0.0,0.9,29,0.00,,,0.00,WUHU216HW,2013-06-28 13:22:00,
2013-06-28 07:27:00,81.5,46.1,30.14,ESE,113,0.0,0.9,29,0.00,,,0.00,WUHU216HW,2013-06-28 13:27:00,
2013-06-28 07:32:00,81.7,44.2,30.14,East,90,1.3,4.7,27,0.00,,,0.00,WUHU216HW,2013-06-28 13:32:00,
2013-06-28 07:37:00,81.7,43.1,30.14,East,90,0.4,4.7,26,0.00,,,0.00,WUHU216HW,2013-06-28 13:37:00,
2013-06-28 07:42:00,81.9,42.2,30.14,NNE,23,0.4,1.3,25,0.00,,,0.00,WUHU216HW,2013-06-28 13:42:00,
2013-06-28 07:47:00,82.1,42.4,30.14,NNE,23,0.7,0.9,25,0.00,,,0.00,WUHU216HW,2013-06-28 13:47:00,
2013-06-28 07:52:00,82.1,42.4,30.14,North,0,1.1,1.3,25,0.00,,,0.00,WUHU216HW,2013-06-28 13:52:00,
2013-06-28 07:57:00,82.3,42.5,30.14,NE,45,0.4,1.3,25,0.00,,,0.00,WUHU216HW,2013-06-28 13:57:00,
2013-06-28 08:02:00,82.4,42.7,30.14,ENE,68,0.9,1.6,25,0.00,,,0.00,WUHU216HW,2013-06-28 14:02:00,
2013-06-28 08:07:00,82.6,42.9,30.14,East,90,1.3,2.2,25,0.00,,,0.00,WUHU216HW,2013-06-28 14:07:00,
2013-06-28 08:12:00,83.0,42.0,30.14,ENE,68,0.0,2.2,24,0.00,,,0.00,WUHU216HW,2013-06-28 14:12:00,
2013-06-28 08:17:00,83.7,42.7,30.14,NNE,23,0.2,1.8,24,0.00,,,0.00,WUHU216HW,2013-06-28 14:17:00,
2013-06-28 08:22:00,84.2,43.1,30.14,NNE,23,0.0,1.3,24,0.00,,,0.00,WUHU216HW,2013-06-28 14:22:00,
2013-06-28 08:27:00,85.0,42.7,30.14,SW,225,1.3,1.8,23,0.00,,,0.00,WUHU216HW,2013-06-28 14:27:00,
2013-06-28 08:32:00,85.7,42.2,30.14,SE,135,2.0,2.0,22,0.00,,,0.00,WUHU216HW,2013-06-28 14:32:00,
2013-06-28 08:37:00,86.4,42.9,30.14,ENE,68,1.1,2.2,22,0.00,,,0.00,WUHU216HW,2013-06-28 14:37:00,
2013-06-28 08:42:00,86.8,42.0,30.14,ENE,68,1.3,2.2,21,0.00,,,0.00,WUHU216HW,2013-06-28 14:42:00,
2013-06-28 08:46:00,86.8,42.0,30.15,East,90,1.3,2.2,21,0.00,,,0.00,WUHU216HW,2013-06-28 14:46:00,
2013-06-28 08:51:00,86.6,41.9,30.15,NE,45,0.0,2.0,21,0.00,,,0.00,WUHU216HW,2013-06-28 14:51:00,
2013-06-28 08:56:00,86.6,41.9,30.16,NNW,338,0.4,1.8,21,0.00,,,0.00,WUHU216HW,2013-06-28 14:56:00,
2013-06-28 09:01:00,86.8,42.0,30.15,North,0,0.2,1.8,21,0.00,,,0.00,WUHU216HW,2013-06-28 15:01:00,
2013-06-28 09:06:00,86.9,42.2,30.15,NNW,338,0.0,1.6,21,0.00,,,0.00,WUHU216HW,2013-06-28 15:06:00,
2013-06-28 09:11:00,87.1,42.4,30.15,North,0,0.7,1.3,21,0.00,,,0.00,WUHU216HW,2013-06-28 15:11:00,
2013-06-28 09:16:00,87.3,39.7,30.16,ENE,68,2.2,2.2,19,0.00,,,0.00,WUHU216HW,2013-06-28 15:16:00,
2013-06-28 09:21:00,87.5,39.9,30.16,ESE,113,2.2,2.9,19,0.00,,,0.00,WUHU216HW,2013-06-28 15:21:00,
2013-06-28 09:26:00,87.7,40.1,30.16,ENE,68,4.0,4.0,19,0.00,,,0.00,WUHU216HW,2013-06-28 15:26:00,
2013-06-28 09:31:00,87.7,40.1,30.16,ENE,68,1.8,4.0,19,0.00,,,0.00,WUHU216HW,2013-06-28 15:31:00,
2013-06-28 09:36:00,87.7,40.1,30.16,East,90,0.7,4.0,19,0.00,,,0.00,WUHU216HW,2013-06-28 15:36:00,
2013-06-28 09:41:00,87.8,40.2,30.17,ESE,113,0.9,3.8,19,0.00,,,0.00,WUHU216HW,2013-06-28 15:41:00,
2013-06-28 09:46:00,88.2,40.5,30.17,East,90,1.3,3.8,19,0.00,,,0.00,WUHU216HW,2013-06-28 15:46:00,
2013-06-28 09:51:00,88.2,38.8,30.17,East,90,2.0,3.4,18,0.00,,,0.00,WUHU216HW,2013-06-28 15:51:00,
2013-06-28 09:56:00,88.4,38.9,30.17,East,90,2.7,4.7,18,0.00,,,0.00,WUHU216HW,2013-06-28 15:56:00,
2013-06-28 10:01:00,88.6,39.1,30.17,ESE,113,2.5,4.7,18,0.00,,,0.00,WUHU216HW,2013-06-28 16:01:00,
2013-06-28 10:06:00,88.6,39.1,30.18,North,0,2.0,5.8,18,0.00,,,0.00,WUHU216HW,2013-06-28 16:06:00,
2013-06-28 10:11:00,88.7,39.2,30.17,North,0,1.1,5.8,18,0.00,,,0.00,WUHU216HW,2013-06-28 16:11:00,
2013-06-28 10:16:00,88.9,37.6,30.18,NNE,23,3.1,4.5,17,0.00,,,0.00,WUHU216HW,2013-06-28 16:16:00,
2013-06-28 10:21:00,89.1,39.5,30.17,ENE,68,4.3,4.3,18,0.00,,,0.00,WUHU216HW,2013-06-28 16:21:00,
2013-06-28 10:26:00,89.6,38.2,30.17,ENE,68,1.1,4.3,17,0.00,,,0.00,WUHU216HW,2013-06-28 16:26:00,
2013-06-28 10:31:00,90.2,38.6,30.17,ENE,68,2.2,4.3,17,0.00,,,0.00,WUHU216HW,2013-06-28 16:31:00,
2013-06-28 10:36:00,91.1,37.5,30.17,ENE,68,2.5,5.1,16,0.00,,,0.00,WUHU216HW,2013-06-28 16:36:00,
2013-06-28 10:41:00,92.2,38.3,30.17,ENE,68,3.4,5.1,16,0.00,,,0.00,WUHU216HW,2013-06-28 16:41:00,
2013-06-28 10:46:00,93.2,39.3,30.17,SE,135,3.4,4.0,16,0.00,,,0.00,WUHU216HW,2013-06-28 16:46:00,
2013-06-28 10:51:00,93.8,37.9,30.17,ENE,68,1.3,4.0,15,0.00,,,0.00,WUHU216HW,2013-06-28 16:51:00,
2013-06-28 10:56:00,94.0,38.0,30.17,East,90,2.2,3.4,15,0.00,,,0.00,WUHU216HW,2013-06-28 16:56:00,
2013-06-28 11:01:00,94.1,38.2,30.17,East,90,1.8,6.0,15,0.00,,,0.00,WUHU216HW,2013-06-28 17:01:00,
2013-06-28 11:06:00,94.3,38.4,30.17,ESE,113,1.6,6.0,15,0.00,,,0.00,WUHU216HW,2013-06-28 17:06:00,
2013-06-28 11:11:00,94.5,38.4,30.17,ENE,68,3.4,3.6,15,0.00,,,0.00,WUHU216HW,2013-06-28 17:11:00,
2013-06-28 11:16:00,94.9,38.7,30.17,ESE,113,4.0,4.0,15,0.00,,,0.00,WUHU216HW,2013-06-28 17:16:00,
2013-06-28 11:21:00,95.0,38.9,30.17,NE,45,2.0,5.4,15,0.00,,,0.00,WUHU216HW,2013-06-28 17:21:00,
2013-06-28 11:26:00,95.0,38.9,30.16,ENE,68,3.6,6.0,15,0.00,,,0.00,WUHU216HW,2013-06-28 17:26:00,
2013-06-28 11:31:00,95.4,35.7,30.16,East,90,1.6,6.0,13,0.00,,,0.00,WUHU216HW,2013-06-28 17:31:00,
2013-06-28 11:36:00,96.1,34.4,30.16,SE,135,4.0,5.4,12,0.00,,,0.00,WUHU216HW,2013-06-28 17:36:00,
2013-06-28 11:41:00,96.5,34.7,30.15,SE,135,4.7,6.3,12,0.00,,,0.00,WUHU216HW,2013-06-28 17:41:00,
2013-06-28 11:44:00,96.3,34.6,30.15,SSE,158,2.2,2.2,12,0.00,,,0.00,WUHU216HW,2013-06-28 17:44:00,
2013-06-28 11:46:00,96.3,34.6,30.15,SSE,158,2.2,6.3,12,0.00,,,0.00,WUHU216HW,2013-06-28 17:46:00,
2013-06-28 11:51:00,96.3,34.6,30.15,SSE,158,2.2,4.7,12,0.00,,,0.00,WUHU216HW,2013-06-28 17:51:00,
2013-06-28 12:00:00,97.4,35.4,30.14,ESE,113,1.1,1.1,12,0.00,,,0.00,WUHU216HW,2013-06-28 18:00:00,
2013-06-28 12:05:00,97.4,35.4,30.14,ESE,113,1.1,1.1,12,0.00,,,0.00,WUHU216HW,2013-06-28 18:05:00,
2013-06-28 12:30:00,98.5,36.2,30.14,East,90,2.5,2.5,12,0.00,,,0.00,WUHU216HW,2013-06-28 18:30:00,
2013-06-28 12:35:00,98.5,36.2,30.14,East,90,2.5,2.5,12,0.00,,,0.00,WUHU216HW,2013-06-28 18:35:00,
2013-06-28 13:00:00,96.7,34.8,30.14,SE,135,1.3,1.3,12,0.00,,,0.00,WUHU216HW,2013-06-28 19:00:00,
2013-06-28 13:05:00,96.7,34.8,30.14,SE,135,1.3,1.3,12,0.00,,,0.00,WUHU216HW,2013-06-28 19:05:00,
2013-06-28 13:30:00,99.2,35.0,30.12,East,90,3.1,3.1,11,0.00,,,0.00,WUHU216HW,2013-06-28 19:30:00,
2013-06-28 13:35:00,99.2,35.0,30.12,East,90,3.1,3.1,11,0.00,,,0.00,WUHU216HW,2013-06-28 19:35:00,
2013-06-28 14:00:00,98.3,34.3,30.11,ENE,68,2.5,2.5,11,0.00,,,0.00,WUHU216HW,2013-06-28 20:00:00,
2013-06-28 14:05:00,98.3,34.3,30.11,ENE,68,2.5,2.5,11,0.00,,,0.00,WUHU216HW,2013-06-28 20:05:00,
2013-06-28 14:30:00,99.4,36.9,30.10,NNE,23,4.9,4.9,12,0.00,,,0.00,WUHU216HW,2013-06-28 20:30:00,
2013-06-28 14:35:00,99.4,36.9,30.10,NNE,23,4.9,4.9,12,0.00,,,0.00,WUHU216HW,2013-06-28 20:35:00,
2013-06-28 15:00:00,99.5,37.1,30.09,ESE,113,1.6,1.6,12,0.00,,,0.00,WUHU216HW,2013-06-28 21:00:00,
2013-06-28 15:05:00,99.5,37.1,30.09,ESE,113,1.6,1.6,12,0.00,,,0.00,WUHU216HW,2013-06-28 21:05:00,
2013-06-28 15:30:00,100.4,37.8,30.08,NE,45,2.5,2.5,12,0.00,,,0.00,WUHU216HW,2013-06-28 21:30:00,
2013-06-28 15:35:00,100.4,37.8,30.08,NE,45,2.5,2.5,12,0.00,,,0.00,WUHU216HW,2013-06-28 21:35:00,
2013-06-28 16:00:00,100.6,37.9,30.06,South,180,4.7,4.7,12,0.00,,,0.00,WUHU216HW,2013-06-28 22:00:00,
2013-06-28 16:05:00,100.6,37.9,30.06,South,180,4.7,4.7,12,0.00,,,0.00,WUHU216HW,2013-06-28 22:05:00,
2013-06-28 16:30:00,100.4,37.8,30.06,East,90,0.4,0.4,12,0.00,,,0.00,WUHU216HW,2013-06-28 22:30:00,
2013-06-28 16:35:00,100.4,37.8,30.06,East,90,0.4,0.4,12,0.00,,,0.00,WUHU216HW,2013-06-28 22:35:00,
2013-06-28 17:00:00,101.2,38.4,30.04,SSE,158,1.8,1.8,12,0.00,,,0.00,WUHU216HW,2013-06-28 23:00:00,
2013-06-28 17:05:00,101.2,38.4,30.04,SSE,158,1.8,1.8,12,0.00,,,0.00,WUHU216HW,2013-06-28 23:05:00,
2013-06-28 17:30:00,101.2,38.4,30.04,ESE,113,3.4,3.4,12,0.00,,,0.00,WUHU216HW,2013-06-28 23:30:00,
2013-06-28 17:35:00,101.2,38.4,30.04,ESE,113,3.4,3.4,12,0.00,,,0.00,WUHU216HW,2013-06-28 23:35:00,
2013-06-28 17:59:00,100.1,37.5,30.03,ESE,113,4.0,4.0,12,0.00,,,0.00,WUHU216HW,2013-06-28 23:59:00,
2013-06-28 18:00:00,100.1,37.5,30.03,ESE,113,4.0,4.0,12,0.00,,,0.00,WUHU216HW,2013-06-29 00:00:00,
2013-06-28 18:05:00,100.1,37.5,30.03,ESE,113,4.0,4.0,12,0.00,,,0.00,WUHU216HW,2013-06-29 00:05:00,
2013-06-28 18:30:00,98.5,38.0,30.03,ENE,68,5.4,5.4,13,0.00,,,0.00,WUHU216HW,2013-06-29 00:30:00,
2013-06-28 18:35:00,98.5,38.0,30.03,ENE,68,5.4,5.4,13,0.00,,,0.00,WUHU216HW,2013-06-29 00:35:00,
2013-06-28 19:00:00,96.8,36.7,30.03,ESE,113,5.1,5.1,13,0.00,,,0.00,WUHU216HW,2013-06-29 01:00:00,
2013-06-28 19:05:00,96.8,36.7,30.03,ESE,113,5.1,5.1,13,0.00,,,0.00,WUHU216HW,2013-06-29 01:05:00,
2013-06-28 19:21:00,96.3,39.9,30.03,SE,135,2.5,2.5,15,0.00,,,0.00,WUHU216HW,2013-06-29 01:21:00,
2013-06-28 19:26:00,96.1,39.8,30.03,ESE,113,3.1,3.4,15,0.00,,,0.00,WUHU216HW,2013-06-29 01:26:00,
2013-06-28 19:31:00,95.9,39.6,30.03,ESE,113,1.6,3.4,15,0.00,,,0.00,WUHU216HW,2013-06-29 01:31:00,
2013-06-28 19:36:00,95.8,39.4,30.03,East,90,1.8,3.4,15,0.00,,,0.00,WUHU216HW,2013-06-29 01:36:00,
2013-06-28 19:41:00,95.8,39.4,30.04,East,90,2.5,2.5,15,0.00,,,0.00,WUHU216HW,2013-06-29 01:41:00,
2013-06-28 19:46:00,95.6,39.3,30.04,ESE,113,0.9,2.5,15,0.00,,,0.00,WUHU216HW,2013-06-29 01:46:00,
2013-06-28 19:51:00,95.4,39.2,30.04,ESE,113,0.9,2.5,15,0.00,,,0.00,WUHU216HW,2013-06-29 01:51:00,
2013-06-28 19:56:00,95.2,39.1,30.04,ESE,113,0.7,1.8,15,0.00,,,0.00,WUHU216HW,2013-06-29 01:56:00,
2013-06-28 20:01:00,95.0,38.9,30.04,ESE,113,0.2,1.8,15,0.00,,,0.00,WUHU216HW,2013-06-29 02:01:00,
2013-06-28 20:06:00,94.9,40.5,30.04,SSE,158,1.3,1.3,16,0.00,,,0.00,WUHU216HW,2013-06-29 02:06:00,
2013-06-28 20:11:00,94.7,40.3,30.04,SSE,158,4.0,5.4,16,0.00,,,0.00,WUHU216HW,2013-06-29 02:11:00,
2013-06-28 20:16:00,94.3,40.1,30.04,South,180,2.2,5.4,16,0.00,,,0.00,WUHU216HW,2013-06-29 02:16:00,
2013-06-28 20:21:00,94.0,39.8,30.04,SSE,158,4.0,4.5,16,0.00,,,0.00,WUHU216HW,2013-06-29 02:21:00,
2013-06-28 20:26:00,93.8,39.6,30.04,SE,135,1.3,4.5,16,0.00,,,0.00,WUHU216HW,2013-06-29 02:26:00,
2013-06-28 20:31:00,93.4,37.6,30.04,South,180,2.2,4.0,15,0.00,,,0.00,WUHU216HW,2013-06-29 02:31:00,
2013-06-28 20:36:00,93.2,39.3,30.04,SSE,158,1.1,3.1,16,0.00,,,0.00,WUHU216HW,2013-06-29 02:36:00,
2013-06-28 20:41:00,93.1,39.1,30.04,SSE,158,0.4,2.5,16,0.00,,,0.00,WUHU216HW,2013-06-29 02:41:00,
2013-06-28 20:46:00,92.5,38.7,30.04,SSE,158,1.3,2.5,16,0.00,,,0.00,WUHU216HW,2013-06-29 02:46:00,
2013-06-28 20:51:00,92.3,38.5,30.04,SSW,203,0.9,2.5,16,0.00,,,0.00,WUHU216HW,2013-06-29 02:51:00,
2013-06-28 20:56:00,92.2,38.3,30.04,South,180,1.6,2.7,16,0.00,,,0.00,WUHU216HW,2013-06-29 02:56:00,
2013-06-28 21:01:00,91.8,38.1,30.05,SSE,158,0.9,2.9,16,0.00,,,0.00,WUHU216HW,2013-06-29 03:01:00,
2013-06-28 21:06:00,91.6,38.0,30.05,South,180,1.8,2.9,16,0.00,,,0.00,WUHU216HW,2013-06-29 03:06:00,
2013-06-28 21:11:00,91.4,37.8,30.05,South,180,1.8,3.4,16,0.00,,,0.00,WUHU216HW,2013-06-29 03:11:00,
2013-06-28 21:16:00,91.4,37.8,30.05,SSE,158,3.4,3.6,16,0.00,,,0.00,WUHU216HW,2013-06-29 03:16:00,
2013-06-28 21:21:00,91.4,37.8,30.05,SSE,158,2.9,4.7,16,0.00,,,0.00,WUHU216HW,2013-06-29 03:21:00,
2013-06-28 21:26:00,91.4,37.8,30.05,South,180,4.0,4.7,16,0.00,,,0.00,WUHU216HW,2013-06-29 03:26:00,
2013-06-28 21:31:00,91.4,39.6,30.05,SSW,203,5.4,5.4,17,0.00,,,0.00,WUHU216HW,2013-06-29 03:31:00,
2013-06-28 21:36:00,91.3,37.7,30.06,South,180,3.8,5.6,16,0.00,,,0.00,WUHU216HW,2013-06-29 03:36:00,
2013-06-28 21:41:00,91.1,39.3,30.06,SSE,158,1.1,5.6,17,0.00,,,0.00,WUHU216HW,2013-06-29 03:41:00,
2013-06-28 21:46:00,90.9,39.2,30.06,SSW,203,1.1,3.8,17,0.00,,,0.00,WUHU216HW,2013-06-29 03:46:00,
2013-06-28 21:51:00,90.5,38.9,30.06,SSW,203,1.8,3.1,17,0.00,,,0.00,WUHU216HW,2013-06-29 03:51:00,
2013-06-28 21:56:00,90.4,38.7,30.06,South,180,1.1,1.8,17,0.00,,,0.00,WUHU216HW,2013-06-29 03:56:00,
2013-06-28 22:01:00,90.0,38.4,30.06,South,180,0.7,1.8,17,0.00,,,0.00,WUHU216HW,2013-06-29 04:01:00,
2013-06-28 22:06:00,89.8,38.3,30.07,SSW,203,0.4,1.8,17,0.00,,,0.00,WUHU216HW,2013-06-29 04:06:00,
2013-06-28 22:11:00,89.5,39.8,30.06,SSE,158,1.1,2.0,18,0.00,,,0.00,WUHU216HW,2013-06-29 04:11:00,
2013-06-28 22:16:00,89.3,39.6,30.07,SSW,203,0.7,2.0,18,0.00,,,0.00,WUHU216HW,2013-06-29 04:16:00,
2013-06-28 22:21:00,88.9,39.3,30.07,SSW,203,0.4,2.2,18,0.00,,,0.00,WUHU216HW,2013-06-29 04:21:00,
2013-06-28 22:26:00,88.9,39.3,30.08,SW,225,1.1,2.2,18,0.00,,,0.00,WUHU216HW,2013-06-29 04:26:00,
2013-06-28 22:31:00,88.6,39.1,30.08,SW,225,0.4,1.1,18,0.00,,,0.00,WUHU216HW,2013-06-29 04:31:00,
2013-06-28 22:36:00,88.6,39.1,30.08,SW,225,0.9,1.1,18,0.00,,,0.00,WUHU216HW,2013-06-29 04:36:00,
2013-06-28 22:41:00,88.2,40.5,30.08,SW,225,0.0,1.1,19,0.00,,,0.00,WUHU216HW,2013-06-29 04:41:00,
2013-06-28 22:46:00,88.2,40.5,30.08,SW,225,0.7,1.1,19,0.00,,,0.00,WUHU216HW,2013-06-29 04:46:00,
2013-06-28 22:51:00,87.8,40.2,30.08,SW,225,0.7,1.1,19,0.00,,,0.00,WUHU216HW,2013-06-29 04:51:00,
2013-06-28 22:56:00,87.7,40.1,30.08,SW,225,0.4,1.1,19,0.00,,,0.00,WUHU216HW,2013-06-29 04:56:00,
2013-06-28 23:01:00,87.3,42.5,30.08,SW,225,0.9,1.1,21,0.00,,,0.00,WUHU216HW,2013-06-29 05:01:00,
2013-06-28 23:06:00,86.9,42.2,30.07,SSW,203,0.7,1.6,21,0.00,,,0.00,WUHU216HW,2013-06-29 05:06:00,
2013-06-28 23:11:00,86.8,42.0,30.08,SW,225,1.6,1.6,21,0.00,,,0.00,WUHU216HW,2013-06-29 05:11:00,
2013-06-28 23:16:00,86.6,41.9,30.08,SSW,203,0.0,1.6,21,0.00,,,0.00,WUHU216HW,2013-06-29 05:16:00,
2013-06-28 23:21:00,86.4,41.8,30.08,SSW,203,1.3,1.6,21,0.00,,,0.00,WUHU216HW,2013-06-29 05:21:00,
2013-06-28 23:26:00,86.2,41.6,30.08,SSW,203,0.4,1.6,21,0.00,,,0.00,WUHU216HW,2013-06-29 05:26:00,
2013-06-28 23:31:00,86.0,41.4,30.08,SSW,203,0.0,1.1,21,0.00,,,0.00,WUHU216HW,2013-06-29 05:31:00,
2013-06-28 23:36:00,85.7,42.2,30.08,SSW,203,0.9,1.1,22,0.00,,,0.00,WUHU216HW,2013-06-29 05:36:00,
2013-06-28 23:41:00,85.5,42.0,30.08,SSW,203,0.4,1.1,22,0.00,,,0.00,WUHU216HW,2013-06-29 05:41:00,
2013-06-28 23:46:00,85.3,41.9,30.08,SSW,203,0.0,1.1,22,0.00,,,0.00,WUHU216HW,2013-06-29 05:46:00,
2013-06-28 23:51:00,85.1,41.8,30.08,SSW,203,0.0,1.1,22,0.00,,,0.00,WUHU216HW,2013-06-29 05:51:00,
2013-06-28 23:56:00,84.8,41.5,30.07,SSW,203,0.7,1.1,22,0.00,,,0.00,WUHU216HW,2013-06-29 05:56:00,